Location: Asheville, NC
(35.6000°N, 82.5500°W)
Time: 19:27:47
(UTC-04:00)

Vanguard 3 - Pass Details

Date: 17 February 2018
Orbit: 507 x 3264 km, 33.4° (Epoch: 27 May)

Event Time Altitude Azimuth Distance (km) Brightness Sun altitude
Rises 23:11:43 0° 263° (W) 3,307 - -58.2°
Reaches altitude 10° 23:14:42 10° 242° (WSW) 2,697 - -58.7°
Maximum altitude 23:18:52 17° 202° (SSW) 2,652 - -59.3°
Drops below altitude 10° 23:24:29 10° 166° (SSE) 3,828 - -60.0°
Sets 23:30:05 0° 150° (SSE) 5,437 - -60.8°
